Home > Weather > Dawson Creek > Past weeks

Flag for Canada Past Weather in Dawson Creek, British Columbia, Canada — Yesterday and Last 2 Weeks

Now
48 °F

Passing clouds.


Feels Like: 47 °F
Forecast: 47 / 71 °F
Wind: 3 mph from Southeast

Location: Dawson Creek Airport

Current Time: Aug 25, 2016 at 6:35:12 AM

Latest Report: Aug 25, 2016 at 6:00 AM


Visibility: 9 mi

Pressure: 30.37 "Hg (28.01 "Hg at 668m altitude)

Humidity: 94%

Dew Point: 46 °F

Location of Dawson CreekLocation

Past Weather in Dawson Creek — Graph

°F

Dawson Creek Temperature Yesterday

Maximum temperature yesterday: 72 °F (at 2:00 PM)
Minimum temperature yesterday: 46 °F (at 2:00 AM)
Average temperature yesterday: 59 °F

High & Low Weather Summary for the Past Weeks

 TemperatureHumidityPressure
High81 °F (Aug 13, 4:00 PM)100% (Aug 11, 11:00 PM)30.42 "Hg (Aug 11, 11:00 PM)
Low43 °F (Aug 23, 5:00 AM)25% (Aug 16, 4:00 PM)29.71 "Hg (Aug 21, 3:51 AM)
Average62 °F69%30.03 "Hg
* Reported Aug 10 5:00 AM — Aug 25 5:00 AM, Dawson Creek, Weather by CustomWeather, © 2016

Note: Actual official high and low records may vary slightly from our data, if they occured in-between our weather recording intervals... More about our weather records

Advertising

Dawson Creek Weather History for the Previous 24 Hours

Scroll right to see more
 ConditionsComfort  
Time TempWeatherWind HumidityBarometerVisibility
5:00 AM
Thu, Aug 25
46 °FClear.2 mph93%30.36 "Hg9 mi
4:00 AM52 °FClear.5 mph94%30.36 "Hg9 mi
3:00 AM48 °FClear.5 mph94%30.37 "Hg9 mi
2:00 AM52 °FClear.5 mph88%30.36 "Hg9 mi
1:00 AM55 °FClear.9 mph82%30.36 "Hg9 mi
12:00 AM54 °FPassing clouds.6 mph88%30.36 "Hg9 mi
11:00 PM
Wed, Aug 24
54 °FPassing clouds.8 mph88%30.37 "Hg9 mi
10:00 PM57 °FClear.12 mph82%30.36 "Hg9 mi
9:00 PM59 °FPassing clouds.10 mph77%30.35 "Hg9 mi
8:00 PM61 °FScattered clouds.9 mph68%30.33 "Hg9 mi
7:00 PM63 °FOvercast.9 mph64%30.32 "Hg9 mi
6:00 PM68 °FOvercast.15 mph53%30.33 "Hg9 mi
5:00 PM72 °FScattered clouds.10 mph44%30.31 "Hg9 mi
4:00 PM72 °FBroken clouds.5 mph47%30.31 "Hg9 mi
3:00 PM72 °FMore clouds than sun.6 mph50%30.32 "Hg9 mi
2:00 PM72 °FPassing clouds.6 mph47%30.32 "Hg9 mi
1:00 PM70 °FPassing clouds.10 mph50%30.33 "Hg9 mi
12:00 PM70 °FSunny.7 mph60%30.33 "Hg9 mi
11:00 AM64 °FSunny.8 mph68%30.34 "Hg9 mi
10:00 AM61 °FPartly sunny.2 mph77%30.34 "Hg9 mi
9:00 AM55 °FOvercast.3 mph88%30.34 "Hg9 mi
8:00 AM54 °FOvercast.No wind94%30.34 "Hg9 mi
7:00 AM52 °FOvercast.No wind94%30.31 "Hg9 mi
6:00 AM50 °FOvercast.2 mph94%30.31 "Hg9 mi
Weather by CustomWeather, © 2016

See weather overviewHow to use our weather pages